This is the latest recevied weather packets stored in our database for station/object IZ3VCM. If no packets are shown the sender has not sent any weather packets the latest 1 day(s).
| Time | Temp. | Humidity | Pressure | Rain* | Wind** | Luminosity | Snow |
|---|---|---|---|---|---|---|---|
| 1778013904 | 12.22° C | 89% | 1012.5 hPa | 0 mm | 0 m/s | - | - |
| 1778013005 | 12.78° C | 89% | 1012.5 hPa | 0 mm | 0 m/s | - | - |
| 1778012103 | 12.78° C | 89% | 1012.4 hPa | 0 mm | 0 m/s | - | - |
| 1778011206 | 13.33° C | 89% | 1012.4 hPa | 0 mm | 0 m/s | - | - |
| 1778010304 | 13.33° C | 88% | 1012.3 hPa | 0 mm | 0 m/s | - | - |
| 1778009406 | 13.33° C | 88% | 1012.1 hPa | 0 mm | 0 m/s | - | - |
| 1778008504 | 13.89° C | 88% | 1012.1 hPa | 0 mm | 0.45 m/s, 90° | - | - |
| 1778007606 | 14.44° C | 87% | 1012.1 hPa | 0 mm | 1.34 m/s, 45° | - | - |
| 1778006703 | 14.44° C | 86% | 1012 hPa | 0 mm | 0 m/s | - | - |
| 1778005805 | 14.44° C | 86% | 1012.1 hPa | 0 mm | 0 m/s | - | - |
| 1778004903 | 15° C | 84% | 1012 hPa | 0 mm | 0 m/s | - | - |
| 1778004005 | 15.56° C | 83% | 1012 hPa | 0 mm | 0 m/s | - | - |
| 1778003103 | 16.11° C | 81% | 1011.9 hPa | 0 mm | 0 m/s | - | - |
| 1778002206 | 17.78° C | 79% | 1011.7 hPa | 0 mm | 0.89 m/s, 68° | - | - |
| 1778001303 | 18.33° C | 77% | 1011.6 hPa | 0 mm | 0 m/s | - | - |
| 1778000405 | 18.89° C | 75% | 1011.5 hPa | 0 mm | 0.45 m/s, 49° | - | - |
| 1777999504 | 19.44° C | 74% | 1011.4 hPa | 0 mm | 0 m/s | - | - |
| 1777998606 | 20° C | 73% | 1011.6 hPa | 0 mm | 0 m/s | - | - |
| 1777997703 | 20.56° C | 74% | 1011.7 hPa | 0 mm | 0.45 m/s, 68° | - | - |
| 1777996806 | 20.56° C | 73% | 1011.8 hPa | 0 mm | 0.89 m/s, 36° | - | - |
| 1777995903 | 20° C | 76% | 1011.9 hPa | 0 mm | 0.45 m/s, 40° | - | - |
| 1777995005 | 18.89° C | 76% | 1011.9 hPa | 0 mm | 0.89 m/s, 56° | - | - |
| 1777994103 | 21.67° C | 71% | 1012 hPa | 0 mm | 1.79 m/s, 45° | - | - |
| 1777993205 | 20.56° C | 75% | 1011.8 hPa | 0 mm | 0.45 m/s, 88° | - | - |
| 1777992304 | 18.89° C | 77% | 1012 hPa | 0 mm | 0.45 m/s, 56° | - | - |
* Rain latest hour (hover to see other rain measurements)
** Current wind speed in m/s (hover to see current wind gust speed)